Date String (YYYY-MM-DD hh:mm:ss) UTC,Instrument flags,absolute air pressure of the measurement (hPa),sample flow rate (lpm),inlet stack bypass flow (lpm),air temperature of the measurement (°C),ambient temperature measured by the external sensor (°C),aerosol sample conditioner tube jacket temperature (°C),OPC LED temperature (°C),internal box temperature (°C),relative humidity of the measurement (%),span deviation,mass concentration of particles derived from Lorenz-Mie calculation of OPC scattering (μg/m³),mass concentration of particles derived from Lorenz-Mie calculation of OPC scattering (μg/m³),mass concentration of particles derived from Lorenz-Mie calculation of OPC scattering (μg/m³)
DateTimeUTC,F1_M11,P_M11,Q1_M11,Q2_M11,T1_M11,T2_M11,T3_M11,T4_M11,T5_M11,U1_M11,ZSPAN_M11,X0_M11,X2_M11,X1_M11
2023-09-04 21:00:00,SystemResetWarning,0821.7,4.98,000.00,027.7,026.4,000.0,035.9,029.5,20.1,0000.0,0004.95,0002.18,0001.82
2023-09-04 21:01:00,SystemResetWarning,0821.7,4.99,000.00,027.7,025.1,000.0,035.9,028.9,20.2,0000.0,0004.83,0002.14,0001.82
2023-09-04 21:02:00,SystemResetWarning,0821.7,5.01,000.00,027.5,024.1,000.0,035.8,028.6,18.3,0000.0,0004.76,0002.09,0001.80
2023-09-04 21:03:00,SystemResetWarning,0821.7,5.01,000.00,027.4,024.2,000.0,035.8,028.6,18.7,0000.0,0004.83,0002.07,0001.79
2023-09-04 21:04:00,SystemResetWarning,0821.7,5.00,000.00,027.4,024.5,000.0,035.8,028.7,18.6,0000.0,0004.85,0002.08,0001.77
2023-09-04 21:05:00,SystemResetWarning,0821.7,5.00,000.00,027.4,024.9,000.0,035.8,028.9,19.7,0000.0,0004.99,0002.07,0001.77
2023-09-04 21:06:00,SystemResetWarning,0821.7,5.01,000.00,027.4,025.3,000.0,035.8,029.1,18.1,0000.0,0004.29,0002.04,0001.76
2023-09-04 21:07:00,SystemResetWarning,0821.8,5.00,000.00,027.5,025.7,000.0,035.8,029.2,17.4,0000.0,0003.15,0002.07,0001.75
2023-09-04 21:08:00,SystemResetWarning,0821.8,5.00,000.00,027.5,026.0,000.0,035.8,029.3,17.2,0000.0,0003.21,0002.08,0001.75
2023-09-04 21:09:00,SystemResetWarning,0821.8,5.00,000.00,027.6,026.3,000.0,035.9,029.4,16.8,0000.0,0003.23,0002.11,0001.76
2023-09-04 21:10:00,SystemResetWarning,0821.8,5.00,000.00,027.7,026.6,000.0,035.9,029.5,17.1,0000.0,0003.13,0002.10,0001.76
2023-09-04 21:11:00,SystemResetWarning,0821.7,4.98,000.00,027.7,026.1,000.0,035.9,029.3,17.5,0000.0,0003.10,0002.10,0001.77
2023-09-04 21:12:00,SystemResetWarning,0821.7,5.01,000.00,027.6,024.6,000.0,035.8,028.8,18.4,0000.0,0003.23,0002.12,0001.76
2023-09-04 21:13:00,SystemResetWarning,0821.7,5.01,000.00,027.5,024.1,000.0,035.8,028.6,17.9,0000.0,0003.28,0002.14,0001.77
2023-09-04 21:14:00,SystemResetWarning,0821.7,5.00,000.00,027.4,024.3,000.0,035.8,028.7,18.4,0000.0,0003.23,0002.18,0001.78
2023-09-04 21:15:00,SystemResetWarning,0821.8,4.99,000.00,027.4,024.7,000.0,035.8,028.8,17.7,0000.0,0003.18,0002.17,0001.79
2023-09-04 21:16:00,SystemResetWarning,0821.8,5.00,000.00,027.4,025.1,000.0,035.8,029.0,17.7,0000.0,0003.01,0002.14,0001.78
2023-09-04 21:17:00,SystemResetWarning,0821.9,5.00,000.00,027.5,025.5,000.0,035.8,029.1,18.4,0000.0,0002.93,0002.13,0001.78
2023-09-04 21:18:00,SystemResetWarning,0821.9,5.00,000.00,027.5,025.9,000.0,035.8,029.3,19.3,0000.0,0002.81,0002.07,0001.75
2023-09-04 21:19:00,SystemResetWarning,0821.9,5.00,000.00,027.6,026.2,000.0,035.9,029.4,19.2,0000.0,0002.66,0002.00,0001.73
2023-09-04 21:20:00,SystemResetWarning,0821.9,5.01,000.00,027.7,026.5,000.0,035.9,029.5,19.3,0000.0,0002.65,0001.99,0001.72
2023-09-04 21:21:00,SystemResetWarning,0821.9,4.99,000.00,027.7,026.7,000.0,035.9,029.5,19.5,0000.0,0003.23,0001.99,0001.71
2023-09-04 21:22:00,SystemResetWarning,0821.9,4.98,000.00,027.7,025.7,000.0,035.9,029.2,19.4,0000.0,0004.42,0001.94,0001.65
2023-09-04 21:23:00,SystemResetWarning,0821.9,5.00,000.00,027.6,024.4,000.0,035.8,028.7,19.5,0000.0,0004.64,0001.85,0001.58
2023-09-04 21:24:00,SystemResetWarning,0821.8,5.00,000.00,027.5,024.2,000.0,035.8,028.7,19.4,0000.0,0004.65,0001.80,0001.52
2023-09-04 21:25:00,SystemResetWarning,0821.9,5.01,000.00,027.5,024.6,000.0,035.8,028.8,19.7,0000.0,0004.56,0001.70,0001.44
2023-09-04 21:26:00,SystemResetWarning,0821.9,5.00,000.00,027.5,024.9,000.0,035.8,028.9,20.4,0000.0,0004.53,0001.61,0001.37
2023-09-04 21:27:00,SystemResetWarning,0822.0,4.99,000.00,027.5,025.3,000.0,035.8,029.1,20.5,0000.0,0004.63,0001.58,0001.31
2023-09-04 21:28:00,SystemResetWarning,0821.9,5.00,000.00,027.5,025.7,000.0,035.8,029.2,20.4,0000.0,0004.67,0001.54,0001.24
2023-09-04 21:29:00,SystemResetWarning,0822.0,5.01,000.00,027.6,026.1,000.0,035.8,029.3,20.2,0000.0,0004.62,0001.49,0001.19
2023-09-04 21:30:00,SystemResetWarning,0822.0,5.00,000.00,027.6,026.4,000.0,035.9,029.4,19.8,0000.0,0004.65,0001.48,0001.14
2023-09-04 21:31:00,SystemResetWarning,0822.0,4.99,000.00,027.7,026.6,000.0,035.9,029.5,19.8,0000.0,0004.67,0001.39,0001.07
2023-09-04 21:32:00,SystemResetWarning,0822.1,4.99,000.00,027.7,025.8,000.0,035.9,029.2,20.3,0000.0,0004.68,0001.34,0001.01
2023-09-04 21:33:00,SystemResetWarning,0822.1,5.01,000.00,027.6,024.5,000.0,035.8,028.8,20.3,0000.0,0003.48,0001.34,0000.99
2023-09-04 21:34:00,SystemResetWarning,0822.0,5.01,000.00,027.5,024.2,000.0,035.8,028.8,20.6,0000.0,0003.13,0001.43,0000.99
2023-09-04 21:35:00,SystemResetWarning,0822.1,5.01,000.00,027.5,024.5,000.0,035.8,028.8,20.8,0000.0,0003.11,0001.46,0000.99
2023-09-04 21:36:00,SystemResetWarning,0822.2,4.98,000.00,027.5,024.9,000.0,035.8,028.9,21.2,0000.0,0003.20,0001.47,0001.01
2023-09-04 21:37:00,SystemResetWarning,0822.1,4.99,000.00,027.5,025.4,000.0,035.8,029.1,20.8,0000.0,0004.62,0001.47,0001.02
2023-09-04 21:38:00,SystemResetWarning,0822.2,5.01,000.00,027.5,025.8,000.0,035.8,029.2,20.5,0000.0,0004.58,0001.48,0001.01
2023-09-04 21:39:00,SystemResetWarning,0822.1,5.01,000.00,027.6,026.1,000.0,035.8,029.3,20.7,0000.0,0004.53,0001.48,0001.00
2023-09-04 21:40:00,SystemResetWarning,0822.1,5.00,000.00,027.7,026.4,000.0,035.9,029.4,20.5,0000.0,0004.66,0001.50,0000.99
2023-09-04 21:41:00,SystemResetWarning,0822.2,4.99,000.00,027.7,026.4,000.0,035.9,029.4,20.3,0000.0,0004.66,0001.47,0000.98
2023-09-04 21:42:00,SystemResetWarning,0822.2,4.99,000.00,027.7,025.2,000.0,035.9,028.9,20.3,0000.0,0004.68,0001.47,0000.97
2023-09-04 21:43:00,SystemResetWarning,0822.2,5.00,000.00,027.5,024.1,000.0,035.8,028.6,20.6,0000.0,0004.03,0001.45,0000.95
2023-09-04 21:44:00,SystemResetWarning,0822.2,5.02,000.00,027.4,024.2,000.0,035.7,028.7,20.7,0000.0,0004.16,0001.45,0000.94
2023-09-04 21:45:00,SystemResetWarning,0822.1,4.99,000.00,027.4,024.6,000.0,035.8,028.7,20.8,0000.0,0004.15,0001.39,0000.92
2023-09-04 21:46:00,SystemResetWarning,0822.1,5.00,000.00,027.4,025.0,000.0,035.8,028.9,21.2,0000.0,0004.23,0001.36,0000.89
2023-09-04 21:47:00,SystemResetWarning,0822.1,5.00,000.00,027.5,025.4,000.0,035.8,029.1,20.9,0000.0,0004.31,0001.33,0000.86
2023-09-04 21:48:00,SystemResetWarning,0822.1,5.00,000.00,027.5,025.8,000.0,035.8,029.2,20.9,0000.0,0003.10,0001.34,0000.84
2023-09-04 21:49:00,SystemResetWarning,0822.2,5.00,000.00,027.6,026.1,000.0,035.8,029.3,20.6,0000.0,0003.04,0001.32,0000.82
2023-09-04 21:50:00,SystemResetWarning,0822.2,4.99,000.00,027.6,026.4,000.0,035.8,029.4,21.1,0000.0,0003.52,0001.31,0000.81
2023-09-04 21:51:00,SystemResetWarning,0822.1,5.00,000.00,027.7,026.5,000.0,035.9,029.5,20.8,0000.0,0003.62,0001.34,0000.81
2023-09-04 21:52:00,SystemResetWarning,0822.1,4.98,000.00,027.7,025.5,000.0,035.8,029.0,20.5,0000.0,0003.71,0001.36,0000.81
2023-09-04 21:53:00,SystemResetWarning,0822.0,5.01,000.00,027.5,024.2,000.0,035.8,028.6,20.7,0000.0,0003.86,0001.36,0000.81
2023-09-04 21:54:00,SystemResetWarning,0822.0,5.01,000.00,027.4,024.2,000.0,035.7,028.7,20.8,0000.0,0005.11,0001.36,0000.81
2023-09-04 21:55:00,SystemResetWarning,0822.0,5.00,000.00,027.4,024.6,000.0,035.7,028.8,21.2,0000.0,0005.01,0001.37,0000.81
2023-09-04 21:56:00,SystemResetWarning,0822.0,5.00,000.00,027.4,025.0,000.0,035.7,028.9,21.1,0000.0,0005.12,0001.34,0000.82
2023-09-04 21:57:00,SystemResetWarning,0822.0,5.00,000.00,027.5,025.4,000.0,035.8,029.1,21.4,0000.0,0005.34,0001.32,0000.82
2023-09-04 21:58:00,SystemResetWarning,0822.1,5.00,000.00,027.5,025.8,000.0,035.8,029.2,21.0,0000.0,0005.66,0001.34,0000.83
2023-09-04 21:59:00,SystemResetWarning,0822.0,4.99,000.00,027.6,026.1,000.0,035.8,029.3,20.9,0000.0,0006.23,0001.37,0000.84
